2P/Encke (2020)

Japanese version
Home page
Updated on November 9, 2019

---------------------------------------------------------------------

* Profile

* Orbital Elements

Epoch 2020 July 10.0 TT = JDT 2459040.5
T 2020 June 25.84523 TT                                 MPCW
q   0.3367207            (2000.0)            P               Q
n   0.29893383     Peri.  186.56245     -0.94513361     -0.31471692
a   2.2152326      Node   334.55167     +0.30823227     -0.77022897
e   0.8479976      Incl.   11.76457     +0.10823739     -0.55470766
P   3.30
From 2077 observations 2009 Aug. 15-2019 Nov. 4, mean residual 0".5.
     Nongravitational parameters A1 = +0.01, A2 = -0.0001.

* Finding Charts

* Magnitudes Graph

        H = 14.2  G = 0.15                [   ,-97]  (             - 2020 Mar. 20)
        m1 =  9.8 + 5 log d + 25   log r  [-97,-45]  (2020 Mar. 20 - 2020 May  11)
        m1 = 10.3 + 5 log d +  7.0 log r  [-45, 20]  (2020 May  11 - 2020 July 15)
        m1 = 12.3 + 5 log d + 15.7 log r  [ 20,115]  (2020 July 15 - 2020 Oct. 18)
        H = 14.2  G = 0.15                [115,   ]  (2020 Oct. 18 -             )

---------------------------------------------------------------------

The orbital elements are published on M.P.E.C. 2019-V116.
The charts are made with StellaNavigator Ver.10 (AstroArts).
The magnitudes graphs are made with Comet for Windows.

---------------------------------------------------------------------

Copyright(C) Seiichi Yoshida (comet@aerith.net). All rights reserved.